Hill City, KS

9:25 AM CDT on April 30, 2017 (GMT -0500)
Hill City Municipal

Weather History for KHLC - March, 2013

Change the Weather History Date:

Tuesday, March 12, 2013

  Actual Average Record
Temperature  
Mean Temperature 36 °F 41 °F  
Max Temperature 51 °F 55 °F 82 °F (1957)
Min Temperature 21 °F 27 °F 4 °F (1956)
Degree Days  
Heating Degree Days 26    
Moisture  
Dew Point 20 °F    
Average Humidity 52    
Maximum Humidity 83    
Minimum Humidity 20    
Precipitation  
Precipitation 0.00 in 0.05 in 0.05 in (1999)
Month to date precipitation 0.08 0.51  
Year to date precipitation 1.27 1.48  
Sea Level Pressure  
Sea Level Pressure 30.27 in    
Wind  
Wind Speed 11 mph (NNW)    
Max Wind Speed 24 mph    
Max Gust Speed 31 mph    
Visibility 10 miles    
Events      
T = Trace of Precipitation, MM = Missing Value Source: NWS Daily Summary

Daily Weather History Graph

Daily Weather History Graph

Search for Another Location

Airport or City:

Trip Planner

Search our weather history database for the weather conditions in past years. The results will help you decide how hot, cold, wet, or windy it might be!

Date:

Astronomy

Mar. 12, 2013 Rise Set
Actual Time 7:54 AM CDT 7:43 PM CDT
Civil Twilight 7:28 AM CDT 8:10 PM CDT
Nautical Twilight 6:57 AM CDT 8:41 PM CDT
Astronomical Twilight 6:25 AM CDT 9:12 PM CDT
Moon 8:02 AM CDT (3/12) 8:59 PM CDT (3/12)
Length of Visible Light 12h 42m
Length of Day
11h 48m
New Moon, 1% of the Moon is Illuminated
Mar 12
New Moon
Mar 19
First Quarter
Mar 27
Full
Apr 2
Last Quarter
Apr 10
New

Hourly Weather History & Observations

Time (CDT) Temp. Windchill Dew Point Humidity Pressure Visibility Wind Dir Wind Speed Gust Speed Precip Events Conditions
12:53 AM 41.0 °F 36.4 °F 32.0 °F 70% 30.08 in 10.0 mi NNW 6.9 mph - N/A   Partly Cloudy
1:53 AM 41.0 °F 35.8 °F 33.1 °F 73% 30.09 in 10.0 mi NW 8.1 mph - N/A   Clear
2:53 AM 37.9 °F 30.5 °F 33.1 °F 83% 30.12 in 10.0 mi NW 11.5 mph - N/A   Clear
3:53 AM 35.1 °F 25.9 °F 30.0 °F 82% 30.14 in 10.0 mi North 13.8 mph - N/A   Clear
4:53 AM 33.1 °F 23.9 °F 28.0 °F 82% 30.17 in 10.0 mi NNW 12.7 mph - N/A   Partly Cloudy
5:53 AM 34.0 °F 26.6 °F 27.0 °F 75% 30.19 in 10.0 mi NNW 9.2 mph - N/A   Overcast
6:53 AM 34.0 °F 25.0 °F 27.0 °F 75% 30.22 in 10.0 mi NNW 12.7 mph - N/A   Overcast
7:53 AM 34.0 °F 26.6 °F 27.0 °F 75% 30.25 in 10.0 mi NNW 9.2 mph - N/A   Overcast
8:53 AM 37.0 °F 29.3 °F 28.0 °F 70% 30.27 in 10.0 mi NNW 11.5 mph - N/A   Overcast
9:53 AM 41.0 °F 34.3 °F 25.0 °F 53% 30.30 in 10.0 mi NW 11.5 mph - N/A   Partly Cloudy
10:53 AM 42.1 °F 32.3 °F 21.9 °F 45% 30.32 in 10.0 mi NNW 24.2 mph 29.9 mph N/A   Overcast
11:53 AM 44.1 °F 36.8 °F 19.9 °F 38% 30.33 in 10.0 mi NNW 16.1 mph 26.5 mph N/A   Clear
12:53 PM 46.0 °F 38.3 °F 15.1 °F 29% 30.32 in 10.0 mi NW 20.7 mph 27.6 mph N/A   Clear
1:53 PM 48.0 °F - 12.0 °F 24% 30.32 in 10.0 mi NW 19.6 mph 31.1 mph N/A   Clear
2:53 PM 48.9 °F - 12.9 °F 24% 30.30 in 10.0 mi NNW 18.4 mph 27.6 mph N/A   Clear
3:53 PM 48.9 °F - 10.9 °F 22% 30.29 in 10.0 mi NW 18.4 mph 27.6 mph N/A   Clear
4:53 PM 50.0 °F - 10.0 °F 20% 30.29 in 10.0 mi NW 16.1 mph 27.6 mph N/A   Clear
5:53 PM 50.0 °F - 10.0 °F 20% 30.29 in 10.0 mi NNW 15.0 mph 26.5 mph N/A   Clear
6:53 PM 46.9 °F - 9.0 °F 21% 30.30 in 10.0 mi NW 15.0 mph 21.9 mph N/A   Clear
7:53 PM 39.9 °F 35.1 °F 10.9 °F 31% 30.33 in 10.0 mi NNW 6.9 mph - N/A   Clear
8:53 PM 32.0 °F 28.7 °F 12.0 °F 44% 30.35 in 10.0 mi NNW 3.5 mph - N/A   Clear
9:53 PM 27.0 °F 19.5 °F 14.0 °F 58% 30.37 in 10.0 mi North 6.9 mph - N/A   Clear
10:53 PM 28.0 °F - 12.9 °F 53% 30.38 in 10.0 mi Calm Calm - N/A   Clear
11:53 PM 23.0 °F 18.4 °F 15.1 °F 72% 30.40 in 10.0 mi NW 3.5 mph - N/A   Clear